Regional Weather Roundup
Issued by NWS

Home | Current Version | Previous Version | Graphics & Text | Print | Product List | Glossary On
Versions: 1 2 3 4 5 6 7 8 9 10 11 12 13 14 15 16 17 18 19 20 21 22 23 24 25 26 27 28 29 30 31 32 33 34 35 36 37 38 39 40 41 42 43 44 45 46 47 48 49 50
000
ASUS43 KDMX 030704
RWRIA

WEATHER ROUNDUP FOR IOWA
NATIONAL WEATHER SERVICE DES MOINES IA
  ISSUED BY NWS QUAD CITIES IA IL
100 AM CST TUE MAR 03 2015

NOTE: "FAIR" INDICATES FEW OR NO CLOUDS BELOW 12,000 FEET WITH NO
SIGNIFICANT WEATHER AND/OR OBSTRUCTIONS TO VISIBILITY.

* - THESE STATIONS ARE NOT NWS STATIONS...THUS NOT UNDER NWS
QUALITY CONTROL.  THEY ALSO DO NOT REPORT WEATHER SUCH
AS PRECIPITATION OR FOG.

IAZ001>003-012>014-020>022-031>034-043>046-030800-
   NORTHWEST IOWA

CITY           SKY/WX    TMP DP  RH WIND       PRES   REMARKS
CARROLL *      CLOUDY    27  21  80 SE14      29.87F WCI  15
CHEROKEE *     CLOUDY    26  22  83 SE8       29.87F WCI  18
DENNISON *     CLOUDY    28  23  80 SE10      29.84F WCI  19
LE MARS *      CLOUDY    27  21  80 SE6       29.84F WCI  20
ORANGE CITY *  CLOUDY    27  21  80 CALM      29.84F
SHELDON *      CLOUDY    25  21  86 SE18      29.83F WCI  11
SIOUX CITY     CLOUDY    30  20  66 SE10      29.83F WCI  21
SPENCER        CLOUDY    26  19  74 SE12      29.88F WCI  16
STORM LAKE *   CLOUDY    25  21  86 SE15      29.87F WCI  12
$$

IAZ055>058-069>071-079>083-090>094-030800-
   SOUTHWEST IOWA

CITY           SKY/WX    TMP DP  RH WIND       PRES   REMARKS
ATLANTIC *     CLOUDY    30  21  69 S14       29.87F WCI  20
CLARINDA *     CLOUDY    32  21  64 S17       29.91F WCI  21
COUNCIL BLFS * CLOUDY    30  23  74 S16       29.84F WCI  19
CRESTON *      CLOUDY    30  21  69 S14G26    29.90F WCI  20
HARLAN *       CLOUDY    30  25  80 S13G21    29.88F WCI  20
LAMONI         CLOUDY    31  21  66 S12G24    29.93F WCI  22
RED OAK *      CLOUDY    32  23  69 S20G25    29.89F WCI  20
SHENANDOAH *   CLOUDY    32  23  69 S15       29.89F WCI  22
$$

IAZ047>049-059>061-072>074-084-030800-
   CENTRAL IOWA

CITY           SKY/WX    TMP DP  RH WIND       PRES   REMARKS
AMES           CLOUDY    26  18  71 SE13      29.95F WCI  15
ANKENY *       CLOUDY    28  21  74 SE9       29.96F WCI  20
BOONE *        CLOUDY    27  21  80 SE15      29.91F WCI  15
CHARITON *     CLOUDY    30  21  69 SE12      29.96F WCI  21
DES MOINES     CLOUDY    30  20  66 SE13      29.96F WCI  20
GRINNELL *     CLOUDY    26  21  79 SE12      29.99F WCI  16
KNOXVILLE *    CLOUDY    30  19  64 SE10      29.96F WCI  21
MARSHALLTOWN   CLOUDY    25  18  74 SE17      29.97F WCI  12
NEWTON *       CLOUDY    27  21  80 SE14      29.97F WCI  15
PELLA *        CLOUDY    29  23  78 SE10      29.99F WCI  20
PERRY *          N/A     29  23  78 SE13      29.92F WCI  18
$$

IAZ004>006-015-016-023>025-035-036-030800-
   NORTH CENTRAL IOWA

CITY           SKY/WX    TMP DP  RH WIND       PRES   REMARKS
ALGONA *       CLOUDY    25  19  80 SE16      29.91F WCI  12
CLARION *      CLOUDY    25  21  86 SE15      29.92F WCI  12
ESTHERVILLE    CLOUDY    23  19  85 SE14      29.89F WCI  11
FORT DODGE *   CLOUDY    27  18  69 SE8G16    29.92F WCI  18
MASON CITY     CLOUDY    23  17  78 SE16      29.96F WCI  10
FOREST CITY *  CLOUDY    25  18  74 SE13      29.94F WCI  13
WEBSTER CITY * CLOUDY    25  21  86 SE14G22   29.91F WCI  13
IOWA FALLS *   PTSUNNY   25  19  78 SE10      29.96F WCI  14
$$

IAZ007>011-017>019-026>030-037>042-050>054-066-030800-
   NORTHEAST IOWA

CITY           SKY/WX    TMP DP  RH WIND       PRES   REMARKS
CEDAR RAPIDS   CLOUDY    26  19  74 SE12      30.03F WCI  16
CHARLES CITY * CLOUDY    23  18  80 SE13      29.99F WCI  11
CLINTON *      CLOUDY    25  19  80 SE17      30.11F WCI  11
DECORAH *      CLOUDY    23  18  80 SE8       30.01F WCI  14
DUBUQUE        CLOUDY    24  18  77 SE13      30.06F WCI  12
MONTICELLO *   CLOUDY    25  21  86 SE12      30.07F WCI  14
OELWEIN *      CLOUDY    25  19  80 SE15      30.02F WCI  12
WATERLOO       CLOUDY    25  18  74 SE15      30.00F WCI  13
$$

IAZ064-065-067-068-078-030800-
   EAST CENTRAL IOWA

CITY           SKY/WX    TMP DP  RH WIND       PRES   REMARKS
DAVENPORT      CLOUDY    26  16  65 SE15      30.10F WCI  14
IOWA CITY      CLOUDY    27  20  75 SE10      30.07F WCI  17
MT. PLEASANT * CLOUDY    28  20  72 SE15      30.06F WCI  16
MUSCATINE *    CLOUDY    28  19  69 SE14G20   30.08F WCI  17
QUAD CITIES    CLOUDY    27  18  69 SE9       30.10F WCI  18
$$

IAZ062-063-075>077-085>089-095>099-030800-
   SOUTHEAST IOWA

CITY           SKY/WX    TMP DP  RH WIND       PRES   REMARKS
BURLINGTON     CLOUDY    28  21  75 SE12      30.06F WCI  18
FAIRFIELD *    CLOUDY    28  21  74 SE15      30.02F WCI  17
FORT MADISON * CLOUDY    28  21  74 SE10G17   30.06F WCI  19
KEOKUK *       CLOUDY    28  21  74 SE12      30.04F WCI  18
OSKALOOSA *    CLOUDY    28  21  77 SE12      30.01F WCI  17
CENTERVILLE *  CLOUDY    28  23  80 SE13      30.00F WCI  18
OTTUMWA        MIX PCPN  29  19  66 SE13      30.00F WCI  19
WASHINGTON *   CLOUDY    28  23  80 SE15G21   30.05F WCI  17
$$

ABBREVIATIONS USED IN REMARKS
   TC - TEMPERATURES IN CELSIUS
  WCI - WIND CHILL INDEX
   HX - HEAT INDEX
  VSB - VISIBILITY
$$


USA.gov is the U.S. government's official web portal to all federal, state and local government web resources and services.